Weather in Miory

Belarus     55˚37′06″N   27˚37′42″E
temp.,
°C
wind,
m/s
gust,
m/s
humid.,
%
clouds,
%
prec.,
mm/h
press.,
hPa
HPBL,
m
30 november, mon
mon3000:00ese359899 0.1 1019290
03:00se369398 0.3 1020365
06:00−1˚se3696100 0.1 1020289
09:00−1˚se369798 0.4 1021276
12:00−1˚sse479386 0.2 1021451
15:00ssw479191 0.3 1021638
18:00−2˚ssw499598 0.1 1021362
21:00−2˚sw599598 0.6 1022414
1 december, tue
tue100:00−4˚ssw489553 0.0 1023183
03:00−3˚ssw499572 0.0 1024293
06:00−4˚ssw479686 0.0 1024243
09:00−2˚ssw469589 0.1 1026257
12:00−3˚ssw469265 0.0 1027265
15:00−2˚ssw369133 0.0 1028305
18:00−4˚s339317 0.0 102983
21:00−4˚s239255 0.0 103169
2 december, wed
wed200:00−4˚s239293 0.0 103243
03:00−5˚s229292 0.0 103228
06:00−4˚se229290 0.0 103234
09:00−4˚se239396 0.0 103258
12:00−3˚se2490100 0.0 1032194
15:00−3˚e249099 0.0 1030195
18:00−4˚ese359491 0.0 1029123
21:00−4˚ese379780 0.0 1029165
3 december, thu
thu300:00−2˚se479091 0.0 1028510
03:00−3˚se479096 0.1 1027442
06:00−3˚se479599 0.1 1026359
09:00−4˚se489596 0.2 1026334
12:00−2˚sse599179 0.0 1025523
15:00−1˚sse589089 0.1 1025580
18:00−2˚se4994100 0.2 1024515
21:00−3˚se499595 0.3 1024331
4 december, fri
fri400:00−1˚se5993100 0.3 1024473
03:00−1˚se51091100 0.3 1023467
06:00−1˚se51092100 0.0 1022431
09:00se51093100 0.1 1022510
12:00+1˚se61192100 0.0 1022643
15:00+1˚se51095100 0.1 1021492
18:00+1˚se61294100 0.0 1021513
21:00+1˚se61394100 0.0 1021519